Regional Weather Roundup
Issued by NWS

Home | Current Version | Previous Version | Text Only | Print | Product List | Glossary Off
Versions: 1 2 3 4 5 6 7 8 9 10 11 12 13 14 15 16 17 18 19 20 21 22 23 24 25 26 27 28 29 30 31 32 33 34 35 36 37 38 39 40 41 42 43 44 45 46 47 48 49 50

000
ASUS43 KLOT 240508
RWRIL

ILLINOIS REGIONAL WEATHER ROUNDUP
NATIONAL WEATHER SERVICE CHICAGO/ROMEOVILLE IL
1200 AM CDT MON APR 24 2017

NOTE: "FAIR" INDICATES FEW OR NO CLOUDS BELOW 12,000 FEET WITH NO
SIGNIFICANT WEATHER AND/OR OBSTRUCTIONS TO VISIBILITY.

* THESE STATIONS ARE NOT UNDER NWS QUALITY CONTROL. THEY ALSO MAY NOT
  REPORT WEATHER SUCH AS PRECIPITATION OR FOG.

ILZ001-002-007-009-015-016-024-240600-
NORTHWEST ILLINOIS

CITY           SKY/WX    TMP DP  RH WIND       PRES   REMARKS
MOLINE         CLEAR     46  39  76 SE3       30.00F
STERLING*      CLEAR     50  39  66 E6        30.02S
SAVANNA*       CLEAR     47  43  85 NE3       30.01S
$$

ILZ003-004-008-010-011-017-018-240600-
NORTH CENTRAL ILLINOIS

CITY           SKY/WX    TMP DP  RH WIND       PRES   REMARKS
ROCKFORD       MOCLDY    51  36  56 E3        30.05R
FREEPORT*      CLEAR     48  35  61 SE8       30.03S
ROCHELLE*      PTCLDY    48  35  61 SE3       30.03S
DE KALB*       PTCLDY    50  34  53 E5        30.04S
PERU*          CLOUDY    52  30  43 CALM      30.03R
$$

ILZ005-006-012>014-019>023-240600-
NORTHEAST ILLINOIS

CITY           SKY/WX    TMP DP  RH WIND       PRES   REMARKS
CHICAGO-OHARE  MOCLDY    44  38  79 NE6       30.05R
CHICAGO-MIDWAY MOCLDY    49  39  68 N5        30.05R
AURORA         CLOUDY    50  34  54 NE3       30.03S
LANSING*       CLEAR     47  41  77 N3        30.04S
JOLIET*        CLEAR     47  36  65 CALM      30.04R
WAUKEGAN       CLOUDY    39  32  76 N3        30.05F
DUPAGE AIRPORT CLOUDY    42  38  85 N7        30.03S
KANKAKEE*      PTCLDY    46  28  49 CALM      30.04S
WHEELING       PTCLDY    42  40  92 CALM      30.06F
MORRIS*        CLEAR     52  32  46 CALM      30.02S
ROMEOVILLE*    CLEAR     52  34  50 E8        30.04R
NORTHERLY ISL    N/A     43  40  89 N13         N/A
$$

LMZ740>746-240600-
SOUTHERN LAKE MICHIGAN

STATION/POSITION SKY/WX   TEMP    WIND        PRES    VSBY  WAVE
                          AIR SEA DIR/SP/G                  HT/PER
                          (F)     (DEG/KT/KT) (MB)    (MI)  (FT/S)
SOUTHERN BUOY              40 40  360/  4/  6 1018.3          3/ 6
HARRISON CRIB              43     350/ 13/ 13   N/A
BURNHAM HARBOR             43     360/ 10/ 13   N/A
CALUMET HARBOR             45     350/  7/  9 1017.3R
BURNS HARBOR               51     330/  4/ 10 1017.9
MICHIGAN CITY              54      80/  4/  4   N/A
ST. JOSEPH                 52 51   80/  2/  2 1017.7          0
$$

ILZ025>027-034>036-040-047-049-050-058-095>099-240600-
WEST-CENTRAL ILLINOIS

CITY           SKY/WX    TMP DP  RH WIND       PRES   REMARKS
QUINCY         CLEAR     59  24  26 SE3       30.00S
GALESBURG*     PTCLDY    46  36  68 CALM      30.00F
MACOMB*        CLEAR     48  32  54 CALM      30.02F
JACKSONVILLE*  CLEAR     49  32  51 CALM      30.00F
PITTSFIELD*    CLEAR     46  38  74 NW3       30.01S
$$

ILZ028>032-037-038-041>044-048-051>054-059>061-240600-
CENTRAL ILLINOIS

CITY           SKY/WX    TMP DP  RH WIND       PRES   REMARKS
PONTIAC        CLEAR     46  32  58 CALM      30.03S
BLOOMINGTON    PTCLDY    51  23  33 E7        30.03S
DECATUR        CLEAR     46  33  60 NE10      30.01S
PEORIA         PTCLDY    50  35  56 E6        30.02S
LACON*         CLEAR     47  33  58 E5        30.01S
LINCOLN*       CLEAR     51  30  46 E5        30.01F
SPRINGFIELD    CLEAR     48  38  68 CALM      30.00F
TAYLORVILLE    CLEAR     52  29  41 N3        30.00S
$$

ILZ033-039-045-046-055>057-062-063-240600-
EAST-CENTRAL ILLINOIS

CITY           SKY/WX    TMP DP  RH WIND       PRES   REMARKS
CHAMPAIGN      CLEAR     55  24  30 NE10      30.01S
RANTOUL*       CLEAR     54  28  36 NE7       30.02R
MATTOON        CLEAR     54  30  40 E3        29.99S
PARIS*         CLEAR     52  33  48 CALM      30.01R
$$

ILZ079-100>102-240600-
SOUTHWEST ILLINOIS

CITY           SKY/WX    TMP DP  RH WIND       PRES   REMARKS
ALTON          CLEAR     49  35  58 N3        29.99S
BELLEVILLE     CLEAR     51  39  63 N5        29.96F
CAHOKIA*       CLEAR     45  39  79 CALM      29.98F
SPARTA*        CLEAR     51  37  58 N3        29.97F
$$

ILZ064>066-069>071-074>076-080>082-084>086-088>090-092>094-240600-
SOUTH-CENTRAL ILLINOIS

CITY           SKY/WX    TMP DP  RH WIND       PRES   REMARKS
CARBONDALE     CLEAR     55  35  47 N7        29.95S
CAIRO*         CLEAR     51  44  76 NE3       29.93F
EFFINGHAM*     CLEAR     55  34  45 CALM      30.00F
MARION         CLEAR     50  37  62 CALM      29.96S
MT. VERNON     CLEAR     55  31  39 N6        29.96F
CENTRALIA*     CLEAR     56  34  42 CALM      29.96F
SALEM*         CLEAR     56  31  37 NE6       29.97F
METROPOLIS*    CLEAR     47  45  90 CALM      29.94S
$$

ILZ067-068-072-073-078-083-087-091-240600-
SOUTHEAST ILLINOIS

CITY           SKY/WX    TMP DP  RH WIND       PRES   REMARKS
LAWRENCEVILLE  CLEAR     54  33  45 NE8       29.97F
FLORA*         CLEAR     55  33  43 N6        29.97F
FAIRFIELD*     CLEAR     54  33  44 N5        29.94F
HARRISBURG*    CLEAR     51  41  68 CALM      29.95S
ROBINSON*      CLEAR     51  32  49 NE6       29.98F
CARMI*         PTCLDY    50  40  67 N6        29.94F
$$

ABBREVIATIONS USED IN REMARKS
   TC - TEMPERATURE IN CELSIUS
  WCI - WIND CHILL INDEX
   HX - HEAT INDEX
  VSB - VISIBILITY
$$





USA.gov is the U.S. government's official web portal to all federal, state and local government web resources and services.